Flag for U.S.A. Weather past 2 weeks in Farmington, New Mexico, U.S.A.

Now
75 °F

Sunny.


Feels Like: 75 °F
Forecast: 46 / 85 °F
Wind: 5 mph from Northeast

Location: Four Corners Regional Airport

Current Time: Jun 3, 2015 at 11:59:32 AM

Latest Report: Jun 3, 2015 at 10:53 AM


Visibility: 10 mi

Pressure: 29.89 "Hg

Humidity: 15%

Dew point: 24 °F

Location of FarmingtonLocation

Historic Weather in Farmington — Graph

°F

Farmington temperature yesterday

Maximum temperature yesterday: 86 °F (at 4:53 PM)
Minimum temperature yesterday: 50 °F (at 3:53 AM)
Average temperature yesterday: 69 °F

Past Weeks' High & Low Weather Summary

 TemperatureHumidityPressure
High88 °F (Jun 1, 4:53 PM)93% (May 24, 3:00 AM)30.14 "Hg (May 24, 3:00 AM)
Low42 °F (May 26, 2:53 AM)9% (May 20, 5:53 PM)29.73 "Hg (May 22, 6:53 PM)
Average61 °F44%29.94 "Hg
* Reported May 19 10:53 AM — Jun 3 10:53 AM, Farmington, Weather by CustomWeather, © 2015

Note: Actual official high and low records may vary slightly from our data, if they occured in-between our weather recording intervals... More about our weather records

Advertising

Farmington weather history for previous 24 hours

 ConditionsComfort  
Time TempWeatherWind HumidityBarometerVisibility
10:53 AM
Wed, Jun 3
75 °FSunny.5 mph15%29.89 "Hg10 mi
9:53 AM70 °FSunny.6 mph23%29.90 "Hg10 mi
8:53 AM64 °FSunny.8 mph29%29.92 "Hg10 mi
7:53 AM57 °FSunny.7 mph37%29.92 "Hg10 mi
6:53 AM50 °FClear.6 mph48%29.92 "Hg10 mi
5:53 AM45 °FClear.6 mph53%29.91 "Hg10 mi
4:53 AM47 °FClear.5 mph48%29.89 "Hg10 mi
3:53 AM48 °FClear.7 mph48%29.88 "Hg10 mi
2:53 AM49 °FClear.6 mph44%29.87 "Hg10 mi
1:53 AM51 °FClear.5 mph41%29.87 "Hg10 mi
12:53 AM53 °FClear.5 mph38%29.87 "Hg10 mi
11:53 PM
Tue, Jun 2
55 °FClear.7 mph37%29.86 "Hg10 mi
10:53 PM60 °FClear.No wind28%29.85 "Hg10 mi
9:53 PM68 °FClear.No wind17%29.83 "Hg10 mi
8:53 PM72 °FSunny.3 mph14%29.82 "Hg10 mi
7:53 PM80 °FSunny.6 mph10%29.81 "Hg10 mi
6:53 PM84 °FSunny.8 mph9%29.81 "Hg10 mi
5:53 PM85 °FSunny.13 mph9%29.83 "Hg10 mi
4:53 PM86 °FSunny.12 mph9%29.83 "Hg10 mi
3:53 PM84 °FSunny.10 mph9%29.87 "Hg10 mi
2:53 PM85 °FSunny.12 mph9%29.88 "Hg10 mi
1:53 PM83 °FSunny.12 mph10%29.90 "Hg10 mi
12:53 PM81 °FSunny.6 mph11%29.91 "Hg10 mi
11:53 AM79 °FSunny.3 mph12%29.92 "Hg10 mi
Weather by CustomWeather, © 2015

See weather overviewHow to use our weather pages